Weather History for Panama City Tyndall AFB, FL

Change the Weather History Date:

Saturday, November 10, 2012

  Actual Average Record
Temperature  
Mean Temperature 57 °F -  
Max Temperature 72 °F 71 °F 82 °F (2002)
Min Temperature 42 °F 52 °F 39 °F (1996)
Degree Days  
Heating Degree Days 8    
Growing Degree Days 7 (Base 50)    
Moisture  
Dew Point 49 °F    
Average Humidity 87    
Maximum Humidity 100    
Minimum Humidity 59    
Precipitation  
Precipitation 0.00 in - - ()
Sea Level Pressure  
Sea Level Pressure 30.28 in    
Wind  
Wind Speed 2 mph (SE)    
Max Wind Speed 10 mph    
Max Gust Speed -    
Visibility 8 miles    
Events      
Averages and records for this station are not official NWS values.
T = Trace of Precipitation, MM = Missing Value Source: NWS Daily Summary

Daily Weather History Graph

Daily Weather History Graph

Search for Another Location

Airport:

Trip Planner

Search our weather history database for the weather conditions in past years. The results will help you decide how hot, cold, wet, or windy it might be!

Date:

Astronomy

Nov. 10, 2012 Rise Set
Actual Time 6:03 AM CST 4:48 PM CST
Civil Twilight 5:38 AM CST 5:13 PM CST
Nautical Twilight 5:09 AM CST 5:42 PM CST
Astronomical Twilight 4:41 AM CST 6:10 PM CST
Moon 2:22 AM CST (11/10) 2:22 PM CST (11/10)
Length of Visible Light 11h 34m
Length of Day
10h 44m
Waning Crescent, 14% of the Moon is Illuminated
Nov 10
Waning Crescent
Nov 13
New
Nov 20
First Quarter
Nov 28
Full
Dec 6
Last Quarter

Hourly Weather History & Observations

Time (CST) Temp. Windchill Dew Point Humidity Pressure Visibility Wind Dir Wind Speed Gust Speed Precip Events Conditions
12:55 AM 45.3 °F - 45.0 °F 99% 30.26 in 10.0 mi Calm Calm - N/A   Clear
1:07 AM 44.6 °F - 44.6 °F 100% 30.26 in 4.0 mi Calm Calm - N/A   Clear
1:15 AM 44.6 °F - 44.6 °F 100% 30.26 in 6.0 mi Calm Calm - N/A   Clear
1:19 AM 44.6 °F - 44.6 °F 100% 30.26 in 4.0 mi Calm Calm - N/A   Clear
1:22 AM 44.6 °F - 44.6 °F 100% 30.25 in 2.5 mi Calm Calm - N/A   Clear
1:30 AM 44.6 °F - 44.6 °F 100% 30.25 in 5.0 mi Calm Calm - N/A   Clear
1:55 AM 45.1 °F - 44.8 °F 99% 30.26 in 10.0 mi Calm Calm - N/A   Clear
2:41 AM 44.6 °F - 44.6 °F 100% 30.26 in 1.2 mi Calm Calm - N/A   Clear
2:44 AM 44.6 °F - 44.6 °F 100% 30.26 in 1.2 mi Calm Calm - N/A   Clear
2:48 AM 44.6 °F - 44.6 °F 100% 30.26 in 1.5 mi Calm Calm - N/A   Clear
2:53 AM 44.6 °F - 44.6 °F 100% 30.26 in 1.2 mi Calm Calm - N/A   Clear
3:01 AM 44.6 °F - 42.8 °F 93% 30.26 in 1.2 mi Calm Calm - N/A   Clear
3:03 AM 44.6 °F - 44.6 °F 100% 30.26 in 2.0 mi Calm Calm - N/A   Clear
3:07 AM 44.6 °F - 44.6 °F 100% 30.26 in 5.0 mi Calm Calm - N/A   Clear
3:55 AM 43.0 °F - 42.6 °F 99% 30.27 in 10.0 mi Calm Calm - N/A   Clear
4:55 AM 42.3 °F - 42.1 °F 99% 30.29 in 10.0 mi Calm Calm - N/A   Clear
5:55 AM 45.9 °F 44.6 °F 45.9 °F 100% 30.30 in 10.0 mi ENE 3.5 mph - N/A   Clear
6:55 AM 50.2 °F - 50.0 °F 99% 30.32 in 10.0 mi ENE 5.8 mph - N/A   Clear
7:55 AM 54.7 °F - 52.0 °F 91% 30.34 in 10.0 mi ENE 5.8 mph - N/A   Clear
8:55 AM 61.0 °F - 52.2 °F 73% 30.34 in 10.0 mi East 8.1 mph - N/A   Clear
9:55 AM 66.0 °F - 54.0 °F 65% 30.34 in 10.0 mi East 9.2 mph - N/A   Clear
10:55 AM 69.4 °F - 55.2 °F 60% 30.32 in 10.0 mi East 8.1 mph - N/A   Clear
11:55 AM 71.4 °F - 56.5 °F 59% 30.30 in 10.0 mi ESE 6.9 mph - N/A   Clear
12:21 PM 71.6 °F - 57.2 °F 60% 30.29 in 10.0 mi Variable 4.6 mph - N/A   Light Drizzle
12:55 PM 72.1 °F - 58.5 °F 62% 30.28 in 10.0 mi South 8.1 mph - 0.00 in   Light Drizzle
1:55 PM 72.0 °F - 57.7 °F 61% 30.27 in 10.0 mi SSW 9.2 mph - 0.00 in   Light Drizzle
2:55 PM 70.3 °F - 57.4 °F 63% 30.26 in 10.0 mi SSW 10.4 mph - 0.00 in   Light Drizzle
3:55 PM 68.9 °F - 58.3 °F 69% 30.27 in 10.0 mi South 6.9 mph - 0.00 in   Light Drizzle
4:15 PM 68.0 °F - 57.2 °F 68% 30.27 in 10.0 mi SSE 8.1 mph - N/A   Clear
4:55 PM 63.0 °F - 55.4 °F 76% 30.28 in 10.0 mi SSE 3.5 mph - 0.00 in   Clear
5:55 PM 57.6 °F - 53.2 °F 85% 30.30 in 10.0 mi SE 5.8 mph - N/A   Clear
6:55 PM 57.2 °F - 50.9 °F 79% 30.30 in 10.0 mi ESE 4.6 mph - N/A   Clear
7:55 PM 55.2 °F - 48.4 °F 78% 30.31 in 10.0 mi ESE 4.6 mph - N/A   Clear
8:55 PM 52.7 °F - 48.4 °F 85% 30.31 in 10.0 mi Calm Calm - N/A   Clear
9:55 PM 49.1 °F - 48.0 °F 96% 30.30 in 10.0 mi Calm Calm - N/A   Clear
10:55 PM 48.7 °F - 48.2 °F 98% 30.29 in 10.0 mi Calm Calm - N/A   Clear
11:55 PM 50.7 °F - 48.4 °F 92% 30.28 in 10.0 mi Calm Calm - N/A   Clear